Lid_Strength_Index
0 -0 -0 -0 -0 -0 -0 -0 -0 -0 0 -0 -0 -0 -0 0 1 1 -0 -1 -1 -1 -1 -1 -1 -1 -1 -1 -1 -1 -1 -1 -1 -1 -1 -1 -1 -1 -1 -1 -1 -1 -1
0 0 0 0 0 -0 -0 -0 0 1 1 1 1 1 1 1 -0 -0 -1 -1 -1 -2 -2 -1 -1 -1 -1 -1 -1 -1 -1 -1 -1 -1 -1 -1 -1 -1 -1 -1 -1 -1 -1
0 0 -0 0 0 0 0 0 1 1 2 1 1 1 1 0 -0 -1 -0 -0 -1 -2 -2 -2 -2 -1 -2 -2 -2 -1 -1 -1 -1 -1 -1 -1 -1 -1 -1 -1 -1 -1 -1
0 1 0 0 -0 0 1 1 1 2 2 2 1 1 -0 -0 -0 -1 -1 -1 -1 -1 -1 -2 -2 -2 -2 -2 -2 -1 -1 -1 -1 -1 -1 -1 -1 -1 -1 -1 -1 -1 -1
-0 0 0 -0 0 1 1 2 2 2 2 2 2 2 0 0 -0 -0 -0 -1 -1 -1 -1 -1 -2 -1 -1 -2 -2 -1 -1 -1 -0 -1 -1 -1 -1 -1 -1 -1 -1 -1 -1
-0 0 1 1 1 2 2 2 3 3 2 2 1 1 1 0 0 0 0 -0 -1 -1 -1 -1 -1 -1 -1 -1 -1 -2 -2 -1 -1 -1 -1 -0 -0 -1 -1 -1 -1 -1 -1
0 2 2 2 3 2 1 2 3 2 1 2 2 2 2 1 1 0 -0 0 -0 -0 -1 -1 -1 -1 -1 -1 -1 -1 -2 -2 -2 -1 -0 0 -0 -1 -0 -1 -0 -0 -1
2 2 3 2 2 2 2 2 2 2 3 3 3 4 5 3 2 1 0 0 0 -0 -0 -1 -1 -1 -1 -1 -1 -1 -1 -2 -2 -1 -1 -1 -1 -1 -0 -0 -0 -0 -0
1 2 2 3 2 2 3 2 2 3 3 4 4 3 5 6 4 2 1 1 0 0 0 -0 -1 -1 -1 -1 -1 -1 -1 -1 -2 -2 -1 -1 -1 -1 -1 -1 -0 -0 -0
3 1 1 1 2 2 2 2 2 2 4 5 4 3 2 2 5 6 2 1 1 1 0 0 -0 -1 -1 -1 -1 -1 -1 -1 -1 -2 -2 -1 -1 -2 -1 -1 -1 -0 -0
5 4 5 5 6 5 4 4 4 3 2 2 3 3 3 2 3 4 6 4 2 1 0 0 -0 -0 -1 -1 -1 -1 -0 -0 -0 -0 -1 -1 -0 -1 -1 -1 -1 -1 -0
5 4 4 4 4 3 3 3 2 2 2 3 3 2 2 3 4 4 5 4 4 2 1 0 0 -0 -1 -1 -1 -1 -0 0 0 0 -0 -1 -1 -1 -1 -1 -1 -1 -1
5 5 4 3 2 2 2 3 3 3 3 3 3 4 3 4 4 4 5 6 6 4 3 1 0 -0 -0 -1 -1 -1 -1 -0 0 1 1 0 -0 -1 -1 -1 -1 -1 -1
4 3 3 3 3 3 3 4 5 5 4 5 5 6 6 6 5 5 5 7 9 8 6 4 2 2 1 1 1 -0 -1 -1 0 1 2 1 1 0 -0 -0 -0 0 0
3 4 4 4 4 4 4 4 5 5 5 5 6 6 6 6 6 6 6 6 8 11 10 6 6 3 4 3 3 2 2 1 -0 -0 1 1 2 1 1 1 1 0 0
4 4 4 4 4 4 5 5 5 5 5 5 5 6 5 6 6 6 7 7 7 8 10 7 7 6 5 5 4 4 3 2 3 2 1 0 1 2 1 2 1 2 1
5 5 4 4 5 5 5 6 6 6 6 6 6 6 6 6 6 6 6 7 7 7 9 8 7 6 6 5 5 4 3 3 2 2 2 1 1 2 2 3 2 2 3
5 5 5 5 5 6 6 6 6 6 6 6 6 6 6 5 5 6 6 6 7 7 8 9 7 6 6 5 5 4 4 4 3 2 2 2 3 3 2 3 3 4 5
5 5 5 6 6 6 6 5 6 6 6 6 5 5 5 5 6 6 6 7 7 6 6 7 8 6 6 6 6 5 5 4 3 3 3 4 3 3 2 2 4 5 7
5 5 5 5 5 6 6 5 5 5 5 5 5 5 5 5 6 6 6 6 6 6 6 7 8 8 7 6 6 7 8 7 6 5 4 4 4 3 2 2 4 5 7
6 5 5 5 5 5 4 5 5 6 6 6 6 6 5 5 5 5 5 5 5 6 7 8 8 8 8 7 7 7 8 8 7 6 5 4 2 0 0 3 3 3 6
6 6 6 6 6 5 7 6 7 8 8 8 8 8 7 6 5 5 5 5 5 6 7 7 7 8 8 7 6 7 8 8 9 5 6 6 4 3 0 0 4 5 6
7 7 6 6 6 6 8 9 8 9 9 9 9 8 8 7 6 6 6 6 6 6 6 6 7 7 7 6 6 7 7 8 8 6 6 7 5 4 2 1 5 6 7
7 7 6 6 7 7 8 9 9 10 10 10 10 9 9 8 7 7 7 7 7 6 7 7 6 6 6 5 6 6 7 6 6 6 5 7 5 4 1 0 6 7 7
7 6 6 7 8 9 10 10 10 11 11 11 10 9 9 8 8 9 8 8 7 6 6 7 7 8 8 8 7 6 7 7 8 7 5 5 4 3 2 2 4 7 7
8 8 8 9 9 10 11 11 11 12 12 12 11 9 8 8 9 9 9 8 8 8 6 7 7 7 8 7 7 5 6 7 7 7 4 5 3 3 4 3 4 5 5